Location: Lombard
(41.8800°N, 88.0080°W)
Time: 13:27:14
(UTC-05:00)

A-11 Canister half - Pass Details

Date: 04 February 2023
Orbit: 1512 x 1687 km, 47.2° (Epoch: 20 March)

Event Time Altitude Azimuth Distance (km) Brightness Sun altitude
Rises 14:00:29 0° 282° (WNW) 4,787 11.8 26.3°
Reaches altitude 10° 14:03:40 10° 285° (WNW) 3,778 11.3 26.0°
Maximum altitude 14:13:09 66° 8° (N) 1,663 9.3 25.0°
Drops below altitude 10° 14:22:22 10° 90° (E) 3,676 10.7 24.0°
Sets 14:25:25 0° 93° (E) 4,652 11.2 23.7°
